GEC284 EDDF-HKJK

Flight info

Callsign GEC284
Flight time N/A
Altitude 33000
Route CINDY8S/18 CINDY Z74 LAMPU DCT NOMBO Y161 MAH DCT VAVOR DCT RADIZ DCT NIPEL DCT ELTIB DCT GLOMY DCT PETAK DCT DIMIS DCT IPTES UL604 TRL DCT SALUN N705 BOPIX N710 TAKRI P751 LXR M999 SEDVA/N0491F350 M999 JDW G650 RASKA/N0497F340 G650 KONET M308 UMTOK/N0489F360 M308 GETOL UM308 RUDOL/N0493F350 UM308 LOTAS LOTAS4D
Aircraft B77L/H-SDE1E2E3FGHIJ2J3J4J5M1RWXY/LB1D1

Departure

Time N/A
Airport Frankfurt Main Airport (EDDF)

Arrival

Time 2026-05-05 09:07
Airport Jomo Kenyatta International Airport (HKJK)
Time Latitude Longitude Altitude Speed Heading
2026-05-05 08:52 -0.34642 36.59233 30226 ft 477 kts 176°
2026-05-05 08:52 -0.37959 36.59376 29572 ft 464 kts 176°
2026-05-05 08:52 -0.41102 36.59512 28943 ft 452 kts 176°
2026-05-05 08:53 -0.44215 36.59646 28345 ft 445 kts 176°
2026-05-05 08:53 -0.47318 36.59781 27769 ft 448 kts 176°
2026-05-05 08:53 -0.50483 36.59920 27193 ft 462 kts 176°
2026-05-05 08:53 -0.53735 36.60063 26574 ft 469 kts 176°
2026-05-05 08:54 -0.56962 36.60203 25935 ft 459 kts 176°
2026-05-05 08:54 -0.60101 36.60338 25327 ft 445 kts 176°
2026-05-05 08:54 -0.63151 36.60468 24749 ft 432 kts 176°
2026-05-05 08:54 -0.66122 36.60597 24190 ft 422 kts 176°
2026-05-05 08:55 -0.69055 36.60724 23618 ft 424 kts 176°
2026-05-05 08:55 -0.72045 36.60856 23007 ft 436 kts 175°
2026-05-05 08:55 -0.75082 36.60990 22419 ft 446 kts 176°
2026-05-05 08:55 -0.78072 36.61121 21844 ft 446 kts 176°
2026-05-05 08:56 -0.81181 36.61256 21258 ft 443 kts 176°
2026-05-05 08:56 -0.84264 36.61389 20695 ft 440 kts 176°
2026-05-05 08:56 -0.87269 36.61519 20134 ft 437 kts 176°
2026-05-05 08:56 -0.90299 36.61649 19555 ft 435 kts 176°
2026-05-05 08:57 -0.93324 36.61781 18995 ft 432 kts 176°
2026-05-05 08:57 -0.96319 36.61911 18407 ft 431 kts 176°
2026-05-05 08:57 -0.99312 36.62042 17782 ft 428 kts 176°
2026-05-05 08:57 -1.02194 36.62167 17206 ft 425 kts 176°
2026-05-05 08:58 -1.05141 36.62295 16662 ft 422 kts 176°
2026-05-05 08:58 -1.08035 36.62420 16133 ft 419 kts 177°
2026-05-05 08:58 -1.10940 36.62546 15593 ft 416 kts 177°
2026-05-05 08:58 -1.13828 36.62672 15048 ft 413 kts 177°
2026-05-05 08:59 -1.16703 36.62797 14510 ft 411 kts 177°
2026-05-05 08:59 -1.19548 36.62921 13949 ft 409 kts 177°
2026-05-05 08:59 -1.22397 36.63044 13370 ft 406 kts 177°
2026-05-05 08:59 -1.25211 36.63166 12815 ft 403 kts 177°
2026-05-05 09:00 -1.28003 36.63287 12225 ft 399 kts 176°
2026-05-05 09:00 -1.30726 36.63405 11702 ft 395 kts 176°
2026-05-05 09:00 -1.33474 36.63524 11282 ft 389 kts 176°
2026-05-05 09:00 -1.36125 36.63639 11117 ft 375 kts 176°
2026-05-05 09:01 -1.38697 36.63751 10964 ft 363 kts 176°
2026-05-05 09:01 -1.41163 36.63930 10794 ft 347 kts 169°
2026-05-05 09:01 -1.43446 36.64559 10668 ft 334 kts 158°
2026-05-05 09:01 -1.45500 36.65543 10410 ft 322 kts 143°
2026-05-05 09:02 -1.46975 36.67119 10159 ft 310 kts 117°
2026-05-05 09:02 -1.47613 36.69146 9895 ft 299 kts 91°
2026-05-05 09:02 -1.47303 36.71128 9639 ft 290 kts 68°
2026-05-05 09:02 -1.46381 36.72893 9390 ft 284 kts 58°
2026-05-05 09:03 -1.45268 36.74507 9160 ft 277 kts 54°
2026-05-05 09:03 -1.44113 36.76058 9011 ft 282 kts 54°
2026-05-05 09:03 -1.42946 36.77640 8638 ft 280 kts 54°
2026-05-05 09:03 -1.41832 36.79168 8270 ft 263 kts 54°
2026-05-05 09:04 -1.40802 36.80586 7971 ft 245 kts 55°
2026-05-05 09:04 -1.39820 36.81936 7651 ft 236 kts 54°
2026-05-05 09:04 -1.38879 36.83229 7358 ft 221 kts 55°
2026-05-05 09:04 -1.38019 36.84410 7117 ft 204 kts 57°
2026-05-05 09:05 -1.37208 36.85524 6872 ft 190 kts 56°
2026-05-05 09:05 -1.36460 36.86553 6640 ft 173 kts 56°
2026-05-05 09:05 -1.35795 36.87471 6398 ft 154 kts 54°
2026-05-05 09:05 -1.35186 36.88318 6045 ft 144 kts 54°
2026-05-05 09:06 -1.34564 36.89168 5939 ft 155 kts 52°
2026-05-05 09:06 -1.33919 36.90038 5775 ft 156 kts 53°
2026-05-05 09:06 -1.33289 36.90916 5569 ft 155 kts 53°
2026-05-05 09:06 -1.32868 36.91492 5448 ft 154 kts 52°
2026-05-05 09:07 -1.32049 36.92614 5316 ft 137 kts 53°
2026-05-05 09:07 -1.31595 36.93229 5307 ft 69 kts 53°
2026-05-05 09:07 -1.31431 36.93452 5304 ft 57 kts 53°
2026-05-05 09:07 -1.31278 36.93661 5303 ft 31 kts 54°
2026-05-05 09:08 -1.31184 36.93818 5300 ft 19 kts 97°
2026-05-05 09:08 -1.31255 36.93893 5303 ft 13 kts 142°
2026-05-05 09:08 -1.31331 36.93943 5302 ft 13 kts 147°
2026-05-05 09:08 -1.31409 36.93991 5304 ft 13 kts 162°
2026-05-05 09:09 -1.31496 36.93919 5304 ft 13 kts 234°
2026-05-05 09:09 -1.31534 36.93870 5307 ft 13 kts 233°
2026-05-05 09:09 -1.31589 36.93796 5305 ft 13 kts 233°
2026-05-05 09:09 -1.31643 36.93722 5305 ft 13 kts 234°
2026-05-05 09:10 -1.31696 36.93649 5307 ft 13 kts 234°
2026-05-05 09:10 -1.31749 36.93575 5309 ft 13 kts 234°
2026-05-05 09:10 -1.31803 36.93501 5307 ft 13 kts 234°
2026-05-05 09:10 -1.31856 36.93426 5308 ft 13 kts 234°
2026-05-05 09:11 -1.31910 36.93352 5311 ft 13 kts 234°
2026-05-05 09:11 -1.31985 36.93251 5311 ft 28 kts 233°
2026-05-05 09:11 -1.32101 36.93094 5317 ft 19 kts 234°
2026-05-05 09:11 -1.32170 36.92988 5318 ft 17 kts 258°
2026-05-05 09:12 -1.32096 36.92900 5317 ft 17 kts 321°
2026-05-05 09:12 -1.31999 36.92829 5316 ft 17 kts 324°
2026-05-05 09:12 -1.31901 36.92759 5314 ft 17 kts 325°
2026-05-05 09:12 -1.31829 36.92710 5312 ft 2 kts 325°
2026-05-05 09:13 -1.31828 36.92709 5312 ft 0 kts 325°
2026-05-05 09:13 -1.31827 36.92709 5312 ft 1 kts 325°
2026-05-05 09:13 -1.31800 36.92679 5311 ft 8 kts 292°
2026-05-05 09:13 -1.31814 36.92628 5316 ft 8 kts 236°
2026-05-05 09:14 -1.31860 36.92563 5311 ft 13 kts 234°
2026-05-05 09:14 -1.31915 36.92487 5312 ft 14 kts 234°
2026-05-05 09:14 -1.31987 36.92387 5313 ft 21 kts 234°
2026-05-05 09:14 -1.32087 36.92251 5318 ft 25 kts 233°
2026-05-05 09:15 -1.32201 36.92096 5334 ft 29 kts 234°
2026-05-05 09:15 -1.32320 36.91931 5333 ft 29 kts 234°
2026-05-05 09:15 -1.32441 36.91767 5340 ft 29 kts 233°
2026-05-05 09:15 -1.32554 36.91614 5342 ft 23 kts 233°
2026-05-05 09:16 -1.32658 36.91593 5345 ft 18 kts 147°
2026-05-05 09:16 -1.32763 36.91660 5345 ft 18 kts 153°
2026-05-05 09:16 -1.32866 36.91724 5346 ft 18 kts 144°
2026-05-05 09:16 -1.32965 36.91797 5345 ft 18 kts 143°
2026-05-05 09:17 -1.33073 36.91767 5336 ft 21 kts 231°
2026-05-05 09:17 -1.33160 36.91661 5335 ft 18 kts 220°
2026-05-05 09:17 -1.33235 36.91592 5332 ft 13 kts 232°
2026-05-05 09:17 -1.33287 36.91568 5335 ft 8 kts 154°
2026-05-05 09:18 -1.33322 36.91589 5334 ft 3 kts 146°
2026-05-05 09:18 -1.33338 36.91600 5334 ft 1 kts 143°
2026-05-05 09:18 -1.33344 36.91604 5332 ft 1 kts 143°
2026-05-05 09:18 -1.33345 36.91605 5332 ft 0 kts 143°